Location: Casco Volunteer Fire Department
(44.5576°N, 87.6146°W)
Time: 05:12:45
(UTC+00:00)

BlueWalker 3 - Pass Details

Date: 14 March 2026
Orbit: 449 x 457 km, 53.2° (Epoch: 15 April)

Event Time Altitude Azimuth Distance (km) Brightness Sun altitude
Exits shadow 08:58:21 13° 53° (NE) 1,414 5.0 -32.4°
Drops below altitude 10° 08:59:00 10° 60° (ENE) 1,601 5.3 -32.3°
Sets 09:01:29 0° 77° (ENE) 2,473 6.4 -32.0°
